Caldwell, NJ

2:34 AM EST on November 15, 2019 (GMT -0500)
Essex County

Weather History for KCDW - October, 2019

Change the Weather History Date:

Sunday, October 20, 2019

  Actual Average Record
Temperature  
Mean Temperature 47 °F -  
Max Temperature 55 °F 60 °F 84 °F (1998)
Min Temperature 39 °F 37 °F 21 °F (1972)
Degree Days  
Heating Degree Days 18    
Moisture  
Dew Point 49 °F    
Average Humidity 90    
Maximum Humidity 96    
Minimum Humidity 72    
Precipitation  
Precipitation 0.42 in - - ()
Sea Level Pressure  
Sea Level Pressure 30.03 in    
Wind  
Wind Speed 2 mph ()    
Max Wind Speed 8 mph    
Max Gust Speed -    
Visibility 6.0 miles    
Events Rain    
Averages and records for this station are not official NWS values.
T = Trace of Precipitation, MM = Missing Value Source: Averaged Metar Reports

Daily Weather History Graph

Daily Weather History Graph

Search for Another Location

Airport or City:

Astronomy

Oct. 20, 2019 Rise Set
Actual Time 7:13 AM EDT 6:09 PM EDT
Civil Twilight 6:45 AM EDT 6:37 PM EDT
Nautical Twilight 6:13 AM EDT 7:09 PM EDT
Astronomical Twilight 5:42 AM EDT 7:40 PM EDT
Moon 11:14 PM EDT (10/20) 1:41 PM EDT (10/20)
Length of Visible Light 11h 51m
Length of Day
10h 55m
Waning Gibbous, 59% of the Moon is Illuminated
Oct 20
Waning Gibbous
Oct 21
Last Quarter
Oct 27
New
Nov 4
First Quarter
Nov 12
Full

Hourly Weather History & Observations

Time (EDT) Temp. Dew Point Humidity Pressure Visibility Wind Dir Wind Speed Gust Speed Precip Events Conditions
12:53 AM 44.1 °F 41.0 °F 89% 30.07 in 10.0 mi Calm Calm - N/A   Clear
1:53 AM 44.1 °F 41.0 °F 89% 30.08 in 10.0 mi Calm Calm - N/A   Clear
2:53 AM 43.0 °F 39.9 °F 89% 30.06 in 10.0 mi Calm Calm - N/A   Clear
3:53 AM 43.0 °F 39.9 °F 89% 30.05 in 10.0 mi Calm Calm - N/A   Clear
4:53 AM 42.1 °F 39.9 °F 92% 30.05 in 10.0 mi Calm Calm - N/A   Clear
5:53 AM 41.0 °F 39.0 °F 93% 30.05 in 9.0 mi Calm Calm - N/A   Clear
6:53 AM 39.9 °F 37.9 °F 93% 30.05 in 9.0 mi Calm Calm - N/A   Clear
7:53 AM 41.0 °F 39.0 °F 93% 30.07 in 8.0 mi Calm Calm - N/A   Clear
8:53 AM 46.0 °F 42.1 °F 86% 30.09 in 10.0 mi Calm Calm - N/A   Overcast
9:53 AM 48.9 °F 43.0 °F 80% 30.09 in 10.0 mi Calm Calm - N/A   Mostly Cloudy
10:53 AM 51.1 °F 44.1 °F 77% 30.08 in 10.0 mi Calm Calm - N/A   Mostly Cloudy
11:53 AM 55.9 °F 46.9 °F 72% 30.08 in 10.0 mi Calm Calm - N/A   Mostly Cloudy
12:53 PM 55.0 °F 48.0 °F 77% 30.08 in 2.0 mi NW 3.5 mph - 0.01 in Rain Light Rain
12:55 PM 55.0 °F 48.0 °F 77% 30.06 in 3.0 mi Calm Calm - 0.00 in Rain Light Rain
1:02 PM 54.0 °F 48.9 °F 83% 30.06 in 2.0 mi Calm Calm - 0.00 in Rain Light Rain
1:32 PM 54.0 °F 50.0 °F 86% 30.05 in 3.0 mi Calm Calm - 0.02 in Rain Light Rain
1:53 PM 54.0 °F 51.1 °F 90% 30.06 in 3.0 mi Calm Calm - 0.05 in Rain Light Rain
2:24 PM 54.0 °F 52.0 °F 93% 30.03 in 2.5 mi NE 3.5 mph - 0.04 in Rain Rain
2:53 PM 55.0 °F 53.1 °F 93% 30.04 in 2.5 mi Calm Calm - 0.07 in Rain Light Rain
3:04 PM 55.0 °F 53.1 °F 93% 30.02 in 2.0 mi Calm Calm - 0.02 in Rain Light Rain
3:15 PM 55.0 °F 53.1 °F 93% 30.02 in 1.8 mi Calm Calm - 0.03 in Rain Rain
3:25 PM 55.0 °F 54.0 °F 96% 30.02 in 1.8 mi Calm Calm - 0.04 in Rain Light Rain
3:29 PM 55.0 °F 54.0 °F 96% 30.01 in 2.0 mi NE 3.5 mph - 0.05 in Rain Light Rain
3:53 PM 55.0 °F 53.1 °F 93% 30.03 in 2.5 mi ENE 5.8 mph - 0.07 in Rain Light Rain
4:53 PM 55.0 °F 53.1 °F 93% 30.02 in 2.0 mi ENE 4.6 mph - 0.09 in Rain Rain
5:48 PM 55.4 °F 53.6 °F 94% 29.99 in 3.0 mi ENE 4.6 mph - 0.04 in Rain Light Rain
5:53 PM 55.0 °F 54.0 °F 96% 30.01 in 3.0 mi ENE 5.8 mph - 0.05 in Rain Light Rain
6:04 PM 55.0 °F 54.0 °F 96% 29.99 in 2.5 mi NNE 4.6 mph - 0.01 in Rain Light Rain
6:24 PM 55.0 °F 54.0 °F 96% 29.99 in 4.0 mi NE 5.8 mph - 0.03 in Rain Light Rain
6:53 PM 55.0 °F 53.1 °F 93% 30.01 in 7.0 mi NE 4.6 mph - 0.03 in Rain Light Rain
7:24 PM 55.0 °F 53.1 °F 93% 30.00 in 6.0 mi ENE 5.8 mph - 0.01 in Rain Light Rain
7:53 PM 55.0 °F 53.1 °F 93% 30.02 in 7.0 mi ENE 4.6 mph - 0.01 in   Overcast
8:14 PM 55.0 °F 53.1 °F 93% 30.00 in 7.0 mi NE 4.6 mph - 0.00 in Rain Light Rain
8:27 PM 55.0 °F 53.1 °F 93% 30.00 in 5.0 mi NE 5.8 mph - 0.01 in Rain Light Rain
8:53 PM 55.0 °F 53.1 °F 93% 30.01 in 7.0 mi ENE 3.5 mph - 0.01 in Rain Light Rain
9:03 PM 55.0 °F 53.1 °F 93% 30.00 in 7.0 mi NE 3.5 mph - 0.00 in   Overcast
9:18 PM 55.0 °F 53.1 °F 93% 30.00 in 6.0 mi Calm Calm - 0.00 in   Overcast
9:50 PM 55.4 °F 53.6 °F 94% 30.00 in 7.0 mi ENE 8.1 mph - 0.00 in   Overcast
9:53 PM 55.0 °F 53.1 °F 93% 30.02 in 7.0 mi ENE 5.8 mph - 0.00 in Rain Light Rain
10:21 PM 55.0 °F 52.0 °F 89% 30.00 in 8.0 mi ENE 8.1 mph - 0.02 in Rain Light Rain
10:29 PM 55.0 °F 53.1 °F 93% 30.00 in 8.0 mi ENE 6.9 mph - 0.02 in   Overcast
10:53 PM 55.0 °F 53.1 °F 93% 30.02 in 6.0 mi NE 5.8 mph - 0.02 in Rain Light Rain
11:53 PM 54.0 °F 51.1 °F 90% 30.02 in 10.0 mi ENE 4.6 mph - 0.01 in   Mostly Cloudy